Wind_Speed
12 11 10 12 13 13 14 16 15 15 15 14 14 16 16 15 14 15 14 12 9 8 9 7 8 9 7 6 6 8 10 10 11 11 12 12 13 13 13 14 14 15 17 18 19 20 22
15 14 13 13 13 14 14 16 16 16 17 17 14 16 17 17 14 14 14 13 11 9 8 8 7 8 7 5 7 7 8 9 10 11 11 12 13 14 15 16 16 17 18 19 20 22 24
17 18 18 18 16 16 15 15 17 18 17 18 18 16 19 17 16 16 16 14 14 11 8 7 7 8 9 7 8 9 9 9 10 12 13 14 15 15 16 17 18 19 20 21 22 23 25
17 20 20 20 20 19 18 17 17 18 18 19 20 20 19 18 17 18 16 16 15 14 11 9 8 8 8 9 11 13 12 13 14 15 15 17 16 16 17 19 20 21 22 22 23 23 25
21 23 22 22 22 23 21 20 19 19 19 19 20 21 19 19 18 18 17 17 16 16 15 13 11 9 11 11 12 14 14 14 15 16 17 16 16 18 18 19 20 21 22 23 23 24 26
20 24 26 26 26 25 26 25 23 22 21 20 20 22 20 18 17 19 19 17 17 17 17 17 17 16 14 15 15 16 17 16 14 13 16 17 17 17 18 19 19 21 23 25 25 28 29
27 27 28 28 29 29 28 29 27 26 22 23 22 22 21 20 20 22 21 19 19 19 19 20 21 20 19 19 19 20 18 16 16 18 19 19 19 18 18 19 21 23 25 27 29 31 33
31 30 31 32 32 31 30 30 28 27 25 25 25 24 23 23 23 25 25 22 20 20 19 22 22 23 23 20 21 20 15 18 20 20 20 20 20 21 21 22 24 26 28 30 30 32 34
38 35 35 35 35 33 31 30 29 29 27 26 26 26 25 25 25 26 27 25 24 25 23 20 20 22 22 22 22 19 21 21 20 22 22 22 22 22 23 24 26 27 28 29 31 32 33
43 40 39 37 35 34 33 32 32 33 32 30 29 29 29 30 30 30 27 28 29 27 24 22 21 23 23 25 22 23 24 24 23 23 24 23 23 22 24 25 26 26 28 30 33 36 40
47 47 42 38 36 35 36 35 35 34 35 31 32 32 33 33 37 33 31 27 26 27 28 23 22 24 25 24 26 26 26 26 25 22 22 22 24 25 26 26 28 30 33 35 38 41 43
38 37 37 37 37 37 37 36 35 36 34 33 32 33 34 33 32 32 34 29 26 25 28 24 25 28 29 30 30 30 30 30 30 28 27 28 28 28 29 30 32 35 37 40 43 46 50
32 34 39 37 38 38 35 38 36 34 34 31 30 31 33 33 30 30 31 30 30 29 30 30 29 31 33 32 31 33 34 33 33 34 33 34 33 32 34 36 37 39 41 45 49 50 52
41 39 37 33 31 35 36 37 36 36 33 33 33 33 33 30 28 29 29 29 32 30 32 33 33 34 35 35 36 37 38 37 36 37 39 39 40 38 40 40 41 41 44 45 50 53 57
42 48 46 38 41 37 36 36 35 35 35 34 34 33 29 30 30 30 31 29 32 33 33 33 33 36 36 37 40 40 41 41 39 41 42 45 45 45 43 43 44 45 48 50 52 56 60
44 39 37 44 46 44 39 41 40 39 38 37 38 36 34 32 35 37 35 36 37 35 34 33 34 37 38 37 41 42 43 43 43 44 46 47 50 49 47 48 47 50 51 52 55 60 63
39 40 43 40 36 36 36 37 38 40 40 41 39 37 35 36 37 37 39 39 38 37 37 38 35 38 39 39 41 44 47 46 48 50 51 51 52 52 50 49 51 53 54 55 58 62 65
31 31 32 34 34 36 36 37 36 37 37 38 36 36 37 39 42 43 43 41 38 34 34 36 36 36 38 41 43 44 47 49 50 54 57 56 55 54 53 52 53 55 56 58 61 65 67
35 39 38 34 32 36 35 33 34 34 36 35 39 40 43 41 41 40 38 36 37 36 40 41 42 36 34 38 42 43 45 46 50 52 55 55 55 55 56 55 56 57 57 61 64 68 69
36 34 36 38 36 36 37 34 34 33 37 39 42 46 42 42 41 41 39 38 34 35 35 37 39 38 40 41 42 45 46 48 49 50 52 55 57 57 58 57 57 58 60 64 67 69 64
36 36 34 35 36 37 35 34 34 34 36 38 41 41 39 41 40 41 42 41 37 40 40 40 41 42 45 49 49 48 48 50 49 51 53 56 56 59 59 58 59 60 62 67 67 63 69
37 37 35 35 35 36 37 37 37 37 39 41 43 43 42 43 42 44 47 46 49 50 54 51 47 48 50 49 46 51 50 52 54 54 55 57 57 58 58 59 62 63 67 66 64 64 67
37 36 36 36 36 36 36 37 38 39 40 43 45 45 47 48 46 48 48 51 49 51 53 52 52 56 54 54 52 52 52 52 53 54 54 55 56 58 58 62 64 66 62 63 64 61 63
35 34 34 34 34 34 35 37 38 39 40 42 44 45 46 49 50 50 50 51 53 53 53 53 58 59 56 54 52 54 54 54 53 53 54 56 59 62 61 64 66 65 66 65 63 62 64
32 31 32 32 32 33 34 36 36 37 39 40 42 43 45 47 49 49 50 52 54 54 55 56 55 55 50 50 50 55 55 54 54 56 57 59 61 63 64 64 63 65 65 63 62 64 63
30 31 31 31 32 33 33 34 34 36 38 40 43 46 47 50 50 51 53 53 54 54 54 55 54 51 50 52 52 55 57 55 54 56 56 59 61 62 62 64 65 65 62 62 65 68 63
31 31 31 32 31 32 33 34 34 36 37 40 42 45 48 51 51 53 53 53 50 48 48 47 50 51 51 52 53 58 58 55 55 55 57 60 61 62 62 63 65 62 61 64 65 62 66
32 31 31 32 32 34 35 36 37 39 39 40 40 40 44 45 49 49 48 46 45 45 45 45 49 49 52 54 57 55 53 57 61 59 60 61 61 58 59 62 64 62 62 64 66 65 65
32 32 31 32 33 36 37 39 40 41 40 41 41 42 41 47 49 48 49 44 43 43 45 46 49 50 52 53 54 59 58 60 61 61 58 58 57 57 58 59 61 63 65 66 66 65 66
Wind_Direction
270 281 291 307 307 307 308 307 309 314 317 320 318 325 331 329 334 335 337 336 331 328 321 316 301 295 289 285 273 271 266 259 255 257 255 251 246 247 244 247 252 256 262 264 265 266 267
264 276 285 290 299 302 302 305 305 307 313 315 317 321 322 330 320 326 326 326 323 318 313 306 293 283 284 269 271 265 267 263 261 255 254 250 248 251 254 256 258 260 263 265 267 269 270
268 272 284 285 289 293 291 292 300 304 310 315 316 315 318 319 322 319 318 316 315 312 303 294 285 282 282 278 265 258 257 257 256 254 253 252 251 251 253 258 261 263 266 267 268 268 269
263 265 274 283 285 289 289 289 290 298 304 307 311 315 312 314 318 318 308 309 307 301 296 291 288 284 286 287 278 271 263 259 256 255 255 254 250 253 260 261 265 268 269 270 272 273 273
270 269 273 279 281 284 291 284 285 287 295 298 304 310 311 312 313 323 310 302 302 297 286 278 275 277 289 295 287 282 278 269 263 257 253 253 258 263 267 268 270 271 272 274 273 275 277
272 273 273 280 282 283 285 287 283 282 284 288 292 303 306 304 305 312 318 307 299 296 288 278 268 273 279 285 286 282 282 271 259 257 267 263 261 262 266 269 271 273 276 277 277 280 281
269 276 272 274 277 277 278 285 278 284 280 284 282 288 299 300 302 306 305 308 299 299 294 287 271 269 275 282 279 285 274 256 262 267 264 266 266 265 267 272 275 276 278 279 282 284 287
267 272 275 271 273 272 273 281 275 281 278 280 284 282 288 293 302 301 295 296 301 299 295 294 282 272 274 279 282 281 260 263 271 268 266 268 270 272 275 278 278 280 279 281 284 288 290
264 274 273 270 270 269 269 273 273 277 278 279 282 277 283 286 300 302 295 290 292 295 295 289 279 270 271 274 279 267 270 274 272 270 267 268 271 273 276 278 279 281 283 287 290 289 291
264 275 275 269 264 264 269 268 270 273 278 278 279 277 280 284 289 294 296 294 287 287 290 290 280 273 269 270 268 268 272 274 273 270 268 268 269 272 276 279 281 283 285 288 290 293 296
267 273 272 264 264 261 271 272 269 273 281 276 276 276 279 283 288 288 292 291 287 286 290 284 278 274 269 268 269 271 269 273 277 269 267 270 273 279 282 283 284 287 289 291 293 294 296
268 269 263 263 266 268 274 274 273 275 279 276 277 278 279 283 289 285 292 282 283 286 294 288 279 270 270 271 273 272 270 273 271 270 273 276 279 283 286 287 288 290 290 291 293 295 297
263 257 261 264 267 271 274 277 277 277 277 279 282 281 282 286 285 284 289 285 279 281 287 288 286 281 276 276 274 272 273 273 273 272 272 274 278 282 285 287 288 290 292 293 295 297 299
262 257 262 261 266 271 272 274 278 279 276 279 281 285 283 280 279 282 287 289 287 289 284 281 283 283 280 276 274 275 274 273 272 271 272 274 276 279 282 285 288 291 293 296 296 298 300
263 256 257 258 261 263 269 277 276 278 279 280 281 281 276 275 276 280 287 293 294 292 285 282 280 279 279 277 275 275 273 271 271 271 272 275 276 279 282 285 289 293 294 295 297 297 297
258 261 267 258 259 263 266 269 275 278 277 280 279 278 275 273 275 277 281 288 292 293 296 288 282 281 281 279 276 277 277 274 273 272 272 273 276 279 284 285 289 291 294 297 298 297 298
259 263 262 266 262 266 266 267 271 275 274 275 276 277 274 273 270 272 278 282 285 287 288 292 293 286 281 284 281 278 277 279 277 275 273 273 274 278 281 284 286 291 293 295 295 295 297
262 265 269 263 264 263 264 269 269 268 271 274 275 277 280 276 275 276 278 279 280 283 290 291 287 288 284 281 282 282 280 278 279 278 277 274 276 278 279 281 285 289 292 293 295 296 296
270 271 269 273 271 273 272 268 270 271 276 273 273 276 283 282 279 279 278 278 281 280 279 283 285 289 290 286 283 283 284 282 279 277 277 276 277 279 281 282 286 290 291 291 293 294 297
263 267 266 271 268 267 266 268 270 271 264 268 270 278 281 281 282 276 276 282 287 283 282 283 282 285 289 290 289 286 285 285 282 280 279 277 277 278 280 282 286 288 290 290 291 295 297
259 265 264 260 260 262 264 265 266 266 267 270 273 276 280 281 278 272 275 277 280 278 285 289 284 288 291 293 292 290 287 284 285 283 281 279 279 280 281 283 286 289 289 289 294 296 294
264 264 264 265 263 264 266 267 268 270 270 272 275 279 279 282 283 277 272 278 280 280 283 284 283 287 293 289 294 294 291 288 285 285 282 281 281 281 283 286 287 289 288 293 294 294 295
267 268 268 269 269 268 269 270 271 273 275 278 279 280 279 278 279 279 281 283 284 282 280 278 281 285 289 291 290 294 291 290 288 285 284 283 284 284 286 286 286 287 293 291 293 295 293
269 271 272 272 271 273 273 275 276 278 277 279 280 279 280 281 280 281 282 283 283 284 283 281 282 286 287 288 289 292 291 292 290 287 287 287 287 288 289 287 288 293 293 294 295 295 294
262 266 270 271 274 275 276 277 279 280 280 279 278 279 277 280 281 281 280 280 280 282 283 284 286 287 286 287 291 295 292 292 294 292 292 291 290 288 286 288 291 291 293 296 294 295 295
258 262 265 269 272 274 277 280 282 281 282 281 278 277 276 274 275 275 277 280 282 282 283 283 282 282 281 284 289 290 294 296 294 293 292 290 288 288 288 288 291 294 297 296 297 296 299
256 261 266 269 273 276 280 283 285 286 286 288 285 283 280 278 278 277 277 279 282 285 287 287 286 281 282 289 291 293 294 295 295 293 292 292 291 288 289 291 292 295 294 294 294 297 295
257 263 267 273 278 281 284 286 287 290 293 295 297 298 288 282 279 279 280 282 284 284 287 291 288 286 288 290 294 293 292 295 295 295 292 291 289 290 289 291 293 294 293 292 293 294 294
257 263 268 272 278 282 286 288 288 291 294 298 302 302 290 283 281 279 281 285 286 289 291 291 292 292 289 290 290 291 294 295 295 293 292 290 289 290 288 292 293 294 293 295 295 295 296
Height
5811 5810 5809 5808 5806 5805 5804 5802 5801 5799 5798 5797 5795 5793 5790 5787 5786 5784 5783 5781 5780 5778 5777 5775 5776 5775 5774 5774 5774 5773 5772 5772 5772 5772 5773 5773 5774 5774 5775 5775 5777 5778 5778 5777 5778 5778 5778
5808 5807 5806 5805 5804 5802 5801 5800 5799 5798 5796 5794 5793 5790 5788 5786 5783 5781 5780 5779 5778 5776 5775 5774 5773 5773 5773 5773 5771 5770 5770 5770 5770 5770 5770 5770 5770 5771 5771 5772 5773 5773 5773 5773 5773 5773 5772
5803 5803 5803 5802 5801 5799 5798 5796 5796 5795 5793 5791 5790 5788 5786 5784 5782 5780 5778 5776 5775 5774 5773 5772 5771 5770 5770 5772 5769 5768 5768 5768 5767 5767 5767 5766 5766 5767 5767 5767 5768 5768 5768 5768 5768 5768 5767
5798 5798 5798 5798 5797 5796 5795 5793 5792 5791 5790 5789 5787 5786 5784 5782 5780 5778 5775 5774 5772 5771 5771 5770 5769 5769 5768 5768 5767 5766 5765 5764 5764 5763 5763 5763 5763 5763 5763 5763 5763 5763 5763 5763 5762 5762 5761
5794 5794 5793 5793 5792 5792 5791 5789 5788 5787 5786 5785 5783 5782 5781 5779 5777 5775 5773 5771 5769 5768 5768 5768 5766 5766 5766 5765 5764 5762 5762 5761 5760 5760 5759 5759 5759 5759 5759 5758 5758 5758 5757 5757 5757 5756 5756
5788 5789 5789 5789 5788 5787 5786 5785 5784 5782 5781 5781 5780 5778 5777 5775 5774 5772 5770 5768 5766 5765 5764 5764 5763 5763 5762 5762 5761 5759 5757 5756 5756 5755 5755 5755 5754 5754 5754 5753 5753 5752 5751 5750 5750 5749 5747
5783 5783 5783 5783 5782 5782 5781 5780 5779 5778 5776 5776 5776 5774 5772 5771 5770 5768 5766 5765 5764 5763 5760 5759 5758 5757 5756 5756 5755 5754 5753 5752 5751 5751 5750 5750 5750 5749 5748 5747 5746 5745 5744 5742 5741 5740 5738
5776 5777 5777 5776 5776 5775 5775 5774 5774 5773 5771 5770 5770 5769 5768 5766 5765 5763 5762 5760 5759 5758 5756 5754 5753 5753 5752 5752 5751 5749 5748 5748 5747 5745 5744 5745 5744 5743 5741 5740 5739 5737 5736 5735 5733 5731 5729
5769 5769 5769 5769 5769 5769 5768 5768 5768 5767 5766 5764 5763 5762 5762 5762 5759 5757 5756 5755 5753 5752 5751 5750 5748 5747 5746 5746 5745 5745 5744 5742 5741 5740 5738 5738 5737 5736 5735 5733 5732 5730 5728 5726 5724 5722 5720
5761 5763 5763 5762 5762 5762 5761 5761 5761 5761 5760 5758 5757 5756 5755 5755 5755 5752 5750 5749 5747 5745 5744 5745 5743 5742 5742 5740 5740 5739 5738 5737 5735 5734 5732 5732 5730 5729 5728 5726 5724 5722 5720 5718 5716 5712 5707
5752 5754 5755 5755 5755 5755 5754 5753 5753 5753 5752 5751 5750 5749 5748 5747 5746 5745 5745 5742 5740 5739 5737 5738 5736 5735 5734 5735 5734 5733 5731 5730 5729 5727 5726 5726 5724 5722 5720 5719 5716 5714 5711 5709 5705 5702 5699
5743 5745 5746 5748 5748 5748 5748 5746 5746 5745 5744 5743 5742 5741 5740 5741 5739 5737 5736 5734 5734 5734 5731 5731 5729 5728 5728 5726 5725 5724 5723 5723 5721 5720 5719 5717 5716 5714 5712 5710 5707 5705 5702 5698 5695 5691 5687
5735 5737 5736 5739 5740 5740 5741 5740 5739 5738 5737 5736 5735 5734 5733 5732 5731 5730 5729 5728 5727 5726 5726 5725 5723 5721 5720 5719 5717 5716 5715 5714 5713 5712 5711 5708 5707 5706 5704 5701 5698 5695 5691 5686 5681 5678 5674
5728 5728 5729 5730 5730 5731 5732 5732 5732 5731 5729 5728 5727 5727 5727 5725 5723 5722 5721 5721 5719 5718 5717 5714 5713 5713 5712 5711 5710 5708 5706 5705 5705 5702 5700 5698 5697 5696 5694 5691 5688 5684 5680 5676 5669 5664 5659
5718 5719 5721 5721 5720 5722 5723 5723 5724 5723 5722 5721 5719 5719 5720 5719 5717 5716 5715 5715 5712 5711 5708 5705 5704 5701 5703 5702 5699 5698 5697 5696 5696 5693 5691 5687 5685 5684 5682 5680 5677 5673 5668 5663 5656 5651 5645
5710 5711 5711 5713 5712 5712 5713 5714 5714 5714 5715 5712 5711 5711 5711 5711 5710 5709 5708 5707 5704 5703 5700 5697 5695 5693 5691 5692 5689 5687 5685 5686 5685 5682 5679 5677 5673 5671 5670 5667 5664 5659 5655 5650 5644 5636 5629
5702 5703 5703 5705 5704 5703 5704 5705 5706 5704 5705 5703 5703 5701 5703 5702 5700 5700 5699 5697 5696 5694 5692 5689 5687 5683 5682 5680 5678 5676 5673 5674 5672 5669 5665 5663 5660 5659 5657 5655 5649 5647 5642 5637 5629 5624 5616
5692 5695 5695 5696 5696 5696 5695 5696 5696 5696 5695 5694 5694 5693 5693 5693 5691 5690 5689 5687 5687 5687 5683 5678 5676 5675 5672 5669 5666 5664 5662 5660 5659 5655 5652 5649 5645 5644 5643 5641 5636 5633 5628 5622 5614 5609 5602
5685 5686 5688 5688 5688 5690 5689 5687 5687 5688 5686 5685 5684 5683 5682 5681 5681 5680 5679 5677 5675 5676 5673 5671 5668 5667 5662 5659 5655 5653 5651 5649 5645 5641 5638 5635 5632 5630 5628 5627 5622 5617 5612 5606 5599 5592 5589
5679 5679 5677 5679 5681 5681 5681 5680 5680 5679 5679 5678 5677 5674 5673 5671 5671 5669 5668 5669 5666 5664 5662 5660 5658 5656 5652 5649 5645 5642 5640 5636 5632 5628 5625 5620 5618 5617 5614 5610 5606 5602 5597 5589 5582 5576 5574
5670 5671 5671 5671 5672 5673 5672 5672 5672 5671 5670 5669 5667 5665 5665 5661 5661 5658 5657 5658 5657 5653 5652 5650 5649 5645 5641 5637 5633 5630 5626 5623 5619 5615 5611 5606 5605 5602 5598 5594 5590 5587 5581 5573 5568 5564 5552
5662 5663 5663 5664 5663 5664 5664 5663 5663 5661 5661 5659 5657 5656 5654 5653 5650 5649 5646 5648 5644 5643 5641 5639 5637 5632 5629 5626 5620 5618 5613 5609 5605 5602 5596 5592 5589 5585 5583 5579 5575 5572 5564 5559 5553 5547 5537
5654 5654 5654 5655 5656 5656 5655 5655 5654 5652 5650 5648 5647 5645 5644 5642 5640 5637 5638 5635 5632 5629 5629 5625 5622 5619 5617 5613 5608 5604 5600 5595 5591 5587 5582 5578 5573 5570 5568 5562 5558 5555 5554 5542 5537 5531 5522
5645 5645 5646 5647 5648 5648 5647 5645 5643 5643 5640 5638 5637 5634 5632 5630 5627 5626 5625 5622 5620 5617 5614 5612 5609 5606 5603 5599 5594 5591 5586 5581 5577 5573 5569 5564 5559 5554 5551 5545 5540 5539 5531 5526 5521 5513 5502
5637 5638 5638 5639 5639 5638 5637 5636 5633 5632 5630 5627 5626 5623 5620 5616 5615 5614 5612 5609 5605 5603 5600 5597 5595 5592 5588 5584 5579 5575 5573 5567 5564 5559 5554 5549 5543 5537 5532 5528 5527 5521 5514 5511 5502 5496 5488
5628 5628 5630 5629 5629 5629 5628 5627 5624 5622 5619 5617 5615 5610 5607 5603 5602 5599 5597 5596 5592 5588 5586 5583 5580 5577 5574 5570 5565 5561 5558 5552 5548 5543 5540 5535 5528 5523 5517 5510 5506 5504 5498 5489 5481 5476 5473
5618 5619 5620 5622 5622 5620 5619 5617 5614 5611 5609 5605 5603 5599 5595 5591 5590 5586 5584 5582 5579 5576 5574 5570 5566 5563 5560 5556 5551 5548 5543 5538 5532 5528 5525 5518 5511 5506 5499 5492 5491 5488 5482 5473 5467 5467 5454
5611 5611 5612 5613 5612 5611 5610 5607 5605 5601 5599 5595 5591 5587 5583 5578 5576 5574 5571 5570 5568 5565 5563 5559 5555 5551 5547 5542 5537 5533 5528 5524 5519 5515 5508 5502 5496 5491 5484 5477 5473 5471 5464 5458 5452 5445 5438
5602 5604 5604 5604 5603 5602 5600 5598 5595 5592 5589 5584 5580 5576 5571 5566 5564 5562 5560 5558 5555 5553 5549 5545 5541 5536 5531 5527 5523 5518 5514 5508 5504 5499 5493 5488 5482 5477 5471 5464 5457 5451 5444 5439 5432 5425 5419